LOT151 EPWA-LTAI

Flight info

Callsign LOT151
Flight time N/A
Altitude 37000
Route EVINA7G EVINA DCT KOTEK DCT KENIN DCT UPAMA/N0449F390 DCT ADORU UL606 CRD UL854 KOZLU KOZLU1U
Aircraft B38M/M-SDE2E3FGHIRWXY/LB1

Departure

Time 2026-05-06 14:08
Airport Warsaw Chopin Airport (EPWA)

Arrival

Time N/A
Airport Antalya International Airport (LTAI)
Time Latitude Longitude Altitude Speed Heading
2026-05-06 14:01 52.16852 20.96987 363 ft 0 kts 62°
2026-05-06 14:04 52.16853 20.96990 363 ft 2 kts 62°
2026-05-06 14:04 52.16868 20.97060 367 ft 11 kts 93°
2026-05-06 14:05 52.16800 20.97192 363 ft 20 kts 157°
2026-05-06 14:05 52.16665 20.97230 367 ft 15 kts 176°
2026-05-06 14:05 52.16589 20.97327 368 ft 15 kts 111°
2026-05-06 14:05 52.16544 20.97485 364 ft 16 kts 117°
2026-05-06 14:06 52.16496 20.97652 361 ft 17 kts 113°
2026-05-06 14:06 52.16432 20.97800 359 ft 17 kts 172°
2026-05-06 14:06 52.16325 20.97733 363 ft 17 kts 221°
2026-05-06 14:06 52.16334 20.97566 361 ft 13 kts 295°
2026-05-06 14:07 52.16335 20.97560 360 ft 0 kts 295°
2026-05-06 14:07 52.16365 20.97460 363 ft 24 kts 295°
2026-05-06 14:07 52.16538 20.96842 365 ft 95 kts 295°
2026-05-06 14:08 52.16899 20.95552 370 ft 154 kts 294°
2026-05-06 14:08 52.17416 20.93820 643 ft 181 kts 292°
2026-05-06 14:08 52.17960 20.91865 1319 ft 187 kts 290°
2026-05-06 14:08 52.18341 20.90046 2533 ft 167 kts 279°
2026-05-06 14:09 52.18417 20.87984 2747 ft 199 kts 258°
2026-05-06 14:09 52.18027 20.85664 3144 ft 219 kts 253°
2026-05-06 14:09 52.17616 20.83220 3806 ft 232 kts 253°
2026-05-06 14:09 52.17193 20.80592 4400 ft 246 kts 255°
2026-05-06 14:10 52.16758 20.77845 5180 ft 252 kts 254°
2026-05-06 14:10 52.16322 20.75063 6066 ft 255 kts 255°
2026-05-06 14:10 52.16026 20.73199 6611 ft 257 kts 251°
2026-05-06 14:10 52.14686 20.70201 7366 ft 253 kts 208°
2026-05-06 14:11 52.13456 20.69847 6661 ft 302 kts 170°